Orbital Elements at Epoch 2459200.5 (2020-Dec-17.0) TDB
Reference: JPL 17 (heliocentric ecliptic J2000)
Element | Value | Uncertainty (1-sigma) | Units |
e | .02106795728906865 | 3.6781e-08 | |
a | 2.239741423841953 | 1.0554e-08 | au |
q | 2.192554647185893 | 8.2408e-08 | au |
i | 4.874588629350455 | 4.1038e-06 | deg |
node | 55.15313484505433 | 5.3526e-05 | deg |
peri | 72.57502023438877 | 0.00013045 | deg |
M | 220.3077973798361 | 0.00012073 | deg |
tp | 2459675.577994854858 (2022-Apr-06.07799485) | 0.00041195 | TDB |
period | 1224.320863583132 3.35 | 8.6539e-06 2.369e-08 | d yr |
n | .2940405662502671 | 2.0784e-09 | deg/d |
Q | 2.286928200498013 | 1.0777e-08 | au |
|
| | Orbit Determination Parameters
Additional Information
|